Location: Luxembourg
(49.6117°N, 6.1300°E)
Time: 14:12:06
(UTC+01:00)

N. Korean satellite - Pass Details

Date: 26 January 2019
Orbit: 457 x 510 km, 97.2° (Epoch: 18 February)

Event Time Altitude Azimuth Distance (km) Brightness Sun altitude
Rises 18:43:50 0° 197° (SSW) 2,593 10.7 -13.4°
Reaches altitude 10° 18:46:12 10° 212° (SSW) 1,720 10.0 -13.8°
Maximum altitude 18:49:14 24° 267° (W) 1,106 9.3 -14.3°
Drops below altitude 10° 18:52:19 10° 322° (NW) 1,741 9.7 -14.8°
Sets 18:54:44 0° 336° (NNW) 2,634 10.5 -15.2°
